Regional Weather Roundup
Issued by NWS

Home | Current Version | Previous Version | Graphics & Text | Print | Product List | Glossary On
Versions: 1 2 3 4 5 6 7 8 9 10 11 12 13 14 15 16 17 18 19 20 21 22 23 24 25 26 27 28 29 30 31 32 33 34 35 36 37 38 39 40 41 42 43 44 45 46 47 48 49 50
000
ASUS45 KCYS 251210
RWRWY

WYOMING REGIONAL WEATHER ROUNDUP
NATIONAL WEATHER SERVICE CHEYENNE WY
600 AM MDT SAT APR 25 2015

NOTE:  "FAIR" INDICATES FEW OR NO CLOUDS BELOW 12,000 FEET
WITH NO SIGNIFICANT WEATHER AND/OR OBSTRUCTIONS TO VISIBILITY.

WYZ001-251300-
YELLOWSTONE NATIONAL PARK

CITY           SKY/WX    TMP DP  RH WIND       PRES   REMARKS
LK YELLOWSTONE   N/A     29  25  85 S5        29.77R WCI  24
6HR MIN TEMP:  29; 6HR MAX TEMP:  34; 6HR PCP:  0.04;

W YELLOWSTONE  NOT AVBL

$$
WYZ002>013-054>058-071-098>099-251300-
NORTHERN WYOMING

CITY           SKY/WX    TMP DP  RH WIND       PRES   REMARKS
JACKSON        CLOUDY    36  32  87 S14       29.76R WCI  27
CODY           CLOUDY    39  36  87 N10       29.68R WCI  32
GREYBULL       MOCLDY    46  39  76 NW21      29.61R
6HR MIN TEMP:  46; 6HR MAX TEMP:  58;

WORLAND        CLOUDY    46  39  76 N6        29.63R
6HR MIN TEMP:  42; 6HR MAX TEMP:  56;

SHERIDAN       CLOUDY    46  41  82 NW16      29.65R
6HR MIN TEMP:  43; 6HR MAX TEMP:  56;

BUFFALO        FAIR      43  39  86 NW14G26   29.64R
6HR MIN TEMP:  43; 6HR MAX TEMP:  52; 6HR PCP: TRACE;

GILLETTE       FAIR      44  38  79 S9        29.63S
6HR MIN TEMP:  43; 6HR MAX TEMP:  49;

HULETT         FAIR      43  32  65 CALM      29.67R
NEWCASTLE      FAIR      36  36 100 CALM      29.68R

$$
WYZ014>020-022>026-101>103-251300-
CENTRAL WYOMING

CITY           SKY/WX    TMP DP  RH WIND       PRES   REMARKS
BIG PINEY      MOCLDY    32  30  92 CALM      29.77R
6HR MIN TEMP:  32; 6HR MAX TEMP:  38; 6HR PCP:  0.13;

PINEDALE       PTSUNNY   34  34 100 NW3       29.78R
DUBOIS         PTSUNNY   34  30  86 N10G16    29.69R WCI  26
LANDER         FAIR      44  33  65 CALM      29.62R
6HR MIN TEMP:  42; 6HR MAX TEMP:  51;

RIVERTON       FAIR      42  32  67 NW10      29.62R
6HR MIN TEMP:  40; 6HR MAX TEMP:  50;

CASPER         MOCLDY    41  34  76 SW9       29.68R
6HR MIN TEMP:  38; 6HR MAX TEMP:  48;

DOUGLAS        FAIR      39  36  89 SE5       29.69R
6HR MIN TEMP:  38; 6HR MAX TEMP:  46;


$$
WYZ021-027>030-104>119-251300-
SOUTHERN WYOMING

CITY           SKY/WX    TMP DP  RH WIND       PRES   REMARKS
EVANSTON       FAIR      32  32 100 SW10      29.84R WCI  24
6HR MIN TEMP:  31; 6HR MAX TEMP:  35; 6HR PCP:  0.01;

FORT BRIDGER   SUNNY     36  30  80 W18G29    29.84R WCI  25
ROCK SPRINGS   CLOUDY    35  31  85 W21       29.80R WCI  24
6HR MIN TEMP:  35; 6HR MAX TEMP:  41; 6HR PCP: TRACE;

DIXON          DRIZZLE   43  32  64 SW12G17   29.82R
RAWLINS        CLOUDY    41  32  70 SW14      29.77R
6HR MIN TEMP:  30; 6HR MAX TEMP:  43;

SARATOGA       FAIR      36  32  87 SW13      29.78R WCI  27
LARAMIE        FAIR      38  26  62 S5        29.78R WCI  34
6HR MIN TEMP:  31; 6HR MAX TEMP:  39;

CHEYENNE       MOCLDY    40  29  64 W3        29.74S
6HR MIN TEMP:  40; 6HR MAX TEMP:  46;

TORRINGTON     FAIR      39  37  92 NW6       29.67F WCI  35
6HR MIN TEMP:  38; 6HR MAX TEMP:  49;

PINE BLUFFS    FAIR      37  32  81 CALM      29.72S

$$



USA.gov is the U.S. government's official web portal to all federal, state and local government web resources and services.